Year,Month,Day,Hour,Minute,Value (Times are PST for barometer in hPa)
2014,02,18,00,00,1007.38
2014,02,18,00,01,1007.38
2014,02,18,00,02,1007.35
2014,02,18,00,03,1007.38
2014,02,18,00,04,1007.38
2014,02,18,00,05,1007.35
2014,02,18,00,06,1007.32
2014,02,18,00,07,1007.35
2014,02,18,00,08,1007.38
2014,02,18,00,09,1007.42
2014,02,18,00,10,1007.38
2014,02,18,00,11,1007.38
2014,02,18,00,12,1007.35
2014,02,18,00,13,1007.35
2014,02,18,00,14,1007.35
2014,02,18,00,15,1007.32
2014,02,18,00,16,1007.35
2014,02,18,00,17,1007.35
2014,02,18,00,18,1007.32
2014,02,18,00,19,1007.32
2014,02,18,00,20,1007.28
2014,02,18,00,21,1007.32
2014,02,18,00,22,1007.25
2014,02,18,00,23,1007.28
2014,02,18,00,24,1007.28
2014,02,18,00,25,1007.25
2014,02,18,00,26,1007.25
2014,02,18,00,27,1007.28
2014,02,18,00,28,1007.28
2014,02,18,00,29,1007.32
2014,02,18,00,30,1007.28
2014,02,18,00,31,1007.28
2014,02,18,00,32,1007.25
2014,02,18,00,33,1007.28
2014,02,18,00,34,1007.25
2014,02,18,00,35,1007.21
2014,02,18,00,36,1007.25
2014,02,18,00,37,1007.25
2014,02,18,00,38,1007.28
2014,02,18,00,39,1007.25
2014,02,18,00,40,1007.25
2014,02,18,00,41,1007.25
2014,02,18,00,42,1007.25
2014,02,18,00,43,1007.25
2014,02,18,00,44,1007.25
2014,02,18,00,45,1007.25
2014,02,18,00,46,1007.28
2014,02,18,00,47,1007.28
2014,02,18,00,48,1007.32
2014,02,18,00,49,1007.32
2014,02,18,00,50,1007.35
2014,02,18,00,51,1007.35
2014,02,18,00,52,1007.35
2014,02,18,00,53,1007.35
2014,02,18,00,54,1007.35
2014,02,18,00,55,1007.38
2014,02,18,00,56,1007.35
2014,02,18,00,57,1007.42
2014,02,18,00,58,1007.45
2014,02,18,00,59,1007.42
2014,02,18,01,00,1007.42
2014,02,18,01,01,1007.42
2014,02,18,01,02,1007.42
2014,02,18,01,03,1007.38
2014,02,18,01,04,1007.42
2014,02,18,01,05,1007.42
2014,02,18,01,06,1007.48
2014,02,18,01,07,1007.48
2014,02,18,01,08,1007.52
2014,02,18,01,09,1007.59
2014,02,18,01,10,1007.59
2014,02,18,01,11,1007.62
2014,02,18,01,12,1007.62
2014,02,18,01,13,1007.62
2014,02,18,01,14,1007.62
2014,02,18,01,15,1007.62
2014,02,18,01,16,1007.69
2014,02,18,01,17,1007.62
2014,02,18,01,18,1007.62
2014,02,18,01,19,1007.65
2014,02,18,01,20,1007.65
2014,02,18,01,21,1007.59
2014,02,18,01,22,1007.62
2014,02,18,01,23,1007.62
2014,02,18,01,24,1007.65
2014,02,18,01,25,1007.65
2014,02,18,01,26,1007.65
2014,02,18,01,27,1007.65
2014,02,18,01,28,1007.69
2014,02,18,01,29,1007.69
2014,02,18,01,30,1007.72
2014,02,18,01,31,1007.72
2014,02,18,01,32,1007.69
2014,02,18,01,33,1007.72
2014,02,18,01,34,1007.72
2014,02,18,01,35,1007.69
2014,02,18,01,36,1007.69
2014,02,18,01,37,1007.72
2014,02,18,01,38,1007.76
2014,02,18,01,39,1007.76
2014,02,18,01,40,1007.76
2014,02,18,01,41,1007.76
2014,02,18,01,42,1007.76
2014,02,18,01,43,1007.69
2014,02,18,01,44,1007.72
2014,02,18,01,45,1007.72
2014,02,18,01,46,1007.76
2014,02,18,01,47,1007.69
2014,02,18,01,48,1007.69
2014,02,18,01,49,1007.72
2014,02,18,01,50,1007.69
2014,02,18,01,51,1007.65
2014,02,18,01,52,1007.59
2014,02,18,01,53,1007.55
2014,02,18,01,54,1007.52
2014,02,18,01,55,1007.52
2014,02,18,01,56,1007.45
2014,02,18,01,57,1007.45
2014,02,18,01,58,1007.42
2014,02,18,01,59,1007.42
2014,02,18,02,00,1007.42
2014,02,18,02,01,1007.35
2014,02,18,02,02,1007.28
2014,02,18,02,03,1007.25
2014,02,18,02,04,1007.32
2014,02,18,02,05,1007.28
2014,02,18,02,06,1007.28
2014,02,18,02,07,1007.18
2014,02,18,02,08,1007.25
2014,02,18,02,09,1007.25
2014,02,18,02,10,1007.35
2014,02,18,02,11,1007.32
2014,02,18,02,12,1007.32
2014,02,18,02,13,1007.35
2014,02,18,02,14,1007.32
2014,02,18,02,15,1007.35
2014,02,18,02,16,1007.42
2014,02,18,02,17,1007.35
2014,02,18,02,18,1007.32
2014,02,18,02,19,1007.25
2014,02,18,02,20,1007.15
2014,02,18,02,21,1007.15
2014,02,18,02,22,1007.11
2014,02,18,02,23,1007.04
2014,02,18,02,24,1006.94
2014,02,18,02,25,1006.94
2014,02,18,02,26,1006.94
2014,02,18,02,27,1006.91
2014,02,18,02,28,1006.88
2014,02,18,02,29,1006.84
2014,02,18,02,30,1006.81
2014,02,18,02,31,1006.88
2014,02,18,02,32,1006.91
2014,02,18,02,33,1006.94
2014,02,18,02,34,1007.01
2014,02,18,02,35,1007.04
2014,02,18,02,36,1007.11
2014,02,18,02,37,1007.08
2014,02,18,02,38,1007.01
2014,02,18,02,39,1007.04
2014,02,18,02,40,1007.04
2014,02,18,02,41,1007.08
2014,02,18,02,42,1007.15
2014,02,18,02,43,1007.15
2014,02,18,02,44,1007.18
2014,02,18,02,45,1007.21
2014,02,18,02,46,1007.18
2014,02,18,02,47,1007.21
2014,02,18,02,48,1007.25
2014,02,18,02,49,1007.21
2014,02,18,02,50,1007.21
2014,02,18,02,51,1007.15
2014,02,18,02,52,1007.11
2014,02,18,02,53,1007.11
2014,02,18,02,54,1007.08
2014,02,18,02,55,1007.04
2014,02,18,02,56,1006.94
2014,02,18,02,57,1006.91
2014,02,18,02,58,1006.88
2014,02,18,02,59,1006.88
2014,02,18,03,00,1006.84
2014,02,18,03,01,1006.84
2014,02,18,03,02,1006.88
2014,02,18,03,03,1006.84
2014,02,18,03,04,1006.88
2014,02,18,03,05,1006.84
2014,02,18,03,06,1006.81
2014,02,18,03,07,1006.67
2014,02,18,03,08,1006.64
2014,02,18,03,09,1006.60
2014,02,18,03,10,1006.64
2014,02,18,03,11,1006.64
2014,02,18,03,12,1006.64
2014,02,18,03,13,1006.67
2014,02,18,03,14,1006.67
2014,02,18,03,15,1006.64
2014,02,18,03,16,1006.67
2014,02,18,03,17,1006.74
2014,02,18,03,18,1006.67
2014,02,18,03,19,1006.64
2014,02,18,03,20,1006.60
2014,02,18,03,21,1006.64
2014,02,18,03,22,1006.64
2014,02,18,03,23,1006.60
2014,02,18,03,24,1006.64
2014,02,18,03,25,1006.64
2014,02,18,03,26,1006.60
2014,02,18,03,27,1006.57
2014,02,18,03,28,1006.54
2014,02,18,03,29,1006.47
2014,02,18,03,30,1006.50
2014,02,18,03,31,1006.54
2014,02,18,03,32,1006.54
2014,02,18,03,33,1006.54
2014,02,18,03,34,1006.54
2014,02,18,03,35,1006.45
2014,02,18,03,36,1006.44
2014,02,18,03,37,1006.37
2014,02,18,03,38,1006.33
2014,02,18,03,39,1006.20
2014,02,18,03,40,1006.27
2014,02,18,03,41,1006.27
2014,02,18,03,42,1006.23
2014,02,18,03,43,1006.16
2014,02,18,03,44,1006.16
2014,02,18,03,45,1006.14
2014,02,18,03,46,1006.23
2014,02,18,03,47,1006.23
2014,02,18,03,48,1006.27
2014,02,18,03,49,1006.23
2014,02,18,03,50,1006.26
2014,02,18,03,51,1006.16
2014,02,18,03,52,1006.13
2014,02,18,03,53,1006.06
2014,02,18,03,54,1005.99
2014,02,18,03,55,1005.93
2014,02,18,03,56,1005.86
2014,02,18,03,57,1005.89
2014,02,18,03,58,1005.86
2014,02,18,03,59,1005.86
2014,02,18,04,00,1005.83
2014,02,18,04,01,1005.83
2014,02,18,04,02,1005.76
2014,02,18,04,03,1005.79
2014,02,18,04,04,1005.79
2014,02,18,04,05,1005.76
2014,02,18,04,06,1005.83
2014,02,18,04,07,1005.79
2014,02,18,04,08,1005.76
2014,02,18,04,09,1005.79
2014,02,18,04,10,1005.76
2014,02,18,04,11,1005.76
2014,02,18,04,12,1005.72
2014,02,18,04,13,1005.69
2014,02,18,04,14,1005.62
2014,02,18,04,15,1005.69
2014,02,18,04,16,1005.69
2014,02,18,04,17,1005.69
2014,02,18,04,18,1005.62
2014,02,18,04,19,1005.59
2014,02,18,04,20,1005.59
2014,02,18,04,21,1005.59
2014,02,18,04,22,1005.59
2014,02,18,04,23,1005.59
2014,02,18,04,24,1005.59
2014,02,18,04,25,1005.45
2014,02,18,04,26,1005.42
2014,02,18,04,27,1005.35
2014,02,18,04,28,1005.32
2014,02,18,04,29,1005.32
2014,02,18,04,30,1005.28
2014,02,18,04,31,1005.25
2014,02,18,04,32,1005.15
2014,02,18,04,33,1005.11
2014,02,18,04,34,1005.11
2014,02,18,04,35,1005.05
2014,02,18,04,36,1004.98
2014,02,18,04,37,1004.98
2014,02,18,04,38,1004.91
2014,02,18,04,39,1004.91
2014,02,18,04,40,1004.84
2014,02,18,04,41,1004.81
2014,02,18,04,42,1004.81
2014,02,18,04,43,1004.81
2014,02,18,04,44,1004.84
2014,02,18,04,45,1004.81
2014,02,18,04,46,1004.84
2014,02,18,04,47,1004.84
2014,02,18,04,48,1004.81
2014,02,18,04,49,1004.84
2014,02,18,04,50,1004.84
2014,02,18,04,51,1004.81
2014,02,18,04,52,1004.81
2014,02,18,04,53,1004.84
2014,02,18,04,54,1004.84
2014,02,18,04,55,1004.84
2014,02,18,04,56,1004.81
2014,02,18,04,57,1004.78
2014,02,18,04,58,1004.74
2014,02,18,04,59,1004.74
2014,02,18,05,00,1004.81
2014,02,18,05,01,1004.81
2014,02,18,05,02,1004.81
2014,02,18,05,03,1004.84
2014,02,18,05,04,1004.81
2014,02,18,05,05,1004.74
2014,02,18,05,06,1004.67
2014,02,18,05,07,1004.67
2014,02,18,05,08,1004.67
2014,02,18,05,09,1004.64
2014,02,18,05,10,1004.67
2014,02,18,05,11,1004.67
2014,02,18,05,12,1004.71
2014,02,18,05,13,1004.71
2014,02,18,05,14,1004.67
2014,02,18,05,15,1004.61
2014,02,18,05,16,1004.61
2014,02,18,05,17,1004.61
2014,02,18,05,18,1004.57
2014,02,18,05,19,1004.61
2014,02,18,05,20,1004.61
2014,02,18,05,21,1004.57
2014,02,18,05,22,1004.61
2014,02,18,05,23,1004.61
2014,02,18,05,24,1004.61
2014,02,18,05,25,1004.57
2014,02,18,05,26,1004.50
2014,02,18,05,27,1004.47
2014,02,18,05,28,1004.50
2014,02,18,05,29,1004.47
2014,02,18,05,30,1004.44
2014,02,18,05,31,1004.40
2014,02,18,05,32,1004.37
2014,02,18,05,33,1004.34
2014,02,18,05,34,1004.30
2014,02,18,05,35,1004.27
2014,02,18,05,36,1004.27
2014,02,18,05,37,1004.27
2014,02,18,05,38,1004.27
2014,02,18,05,39,1004.23
2014,02,18,05,40,1004.13
2014,02,18,05,41,1004.17
2014,02,18,05,42,1004.10
2014,02,18,05,43,1004.06
2014,02,18,05,44,1004.06
2014,02,18,05,45,1004.03
2014,02,18,05,46,1004.03
2014,02,18,05,47,1003.93
2014,02,18,05,48,1003.93
2014,02,18,05,49,1003.93
2014,02,18,05,50,1003.86
2014,02,18,05,51,1003.76
2014,02,18,05,52,1003.66
2014,02,18,05,53,1003.59
2014,02,18,05,54,1003.52
2014,02,18,05,55,1003.49
2014,02,18,05,56,1003.45
2014,02,18,05,57,1003.35
2014,02,18,05,58,1003.29
2014,02,18,05,59,1003.12
2014,02,18,06,00,1003.01
2014,02,18,06,01,1002.98
2014,02,18,06,02,1002.98
2014,02,18,06,03,1003.01
2014,02,18,06,04,1002.98
2014,02,18,06,05,1002.98
2014,02,18,06,06,1002.98
2014,02,18,06,07,1003.01
2014,02,18,06,08,1003.08
2014,02,18,06,09,1003.12
2014,02,18,06,10,1003.05
2014,02,18,06,11,1003.01
2014,02,18,06,12,1002.95
2014,02,18,06,13,1002.91
2014,02,18,06,14,1002.85
2014,02,18,06,15,1002.88
2014,02,18,06,16,1002.91
2014,02,18,06,17,1002.88
2014,02,18,06,18,1002.85
2014,02,18,06,19,1002.81
2014,02,18,06,20,1002.78
2014,02,18,06,21,1002.68
2014,02,18,06,22,1002.71
2014,02,18,06,23,1002.74
2014,02,18,06,24,1002.74
2014,02,18,06,25,1002.71
2014,02,18,06,26,1002.68
2014,02,18,06,27,1002.68
2014,02,18,06,28,1002.64
2014,02,18,06,29,1002.68
2014,02,18,06,30,1002.61
2014,02,18,06,31,1002.61
2014,02,18,06,32,1002.57
2014,02,18,06,33,1002.57
2014,02,18,06,34,1002.51
2014,02,18,06,35,1002.47
2014,02,18,06,36,1002.34
2014,02,18,06,37,1002.37
2014,02,18,06,38,1002.41
2014,02,18,06,39,1002.41
2014,02,18,06,40,1002.34
2014,02,18,06,41,1002.27
2014,02,18,06,42,1002.20
2014,02,18,06,43,1002.20
2014,02,18,06,44,1002.20
2014,02,18,06,45,1002.20
2014,02,18,06,46,1002.17
2014,02,18,06,47,1002.13
2014,02,18,06,48,1002.07
2014,02,18,06,49,1001.92
2014,02,18,06,50,1001.83
2014,02,18,06,51,1001.69
2014,02,18,06,52,1001.65
2014,02,18,06,53,1001.52
2014,02,18,06,54,1001.49
2014,02,18,06,55,1001.46
2014,02,18,06,56,1001.46
2014,02,18,06,57,1001.56
2014,02,18,06,58,1001.59
2014,02,18,06,59,1001.63
2014,02,18,07,00,1001.56
2014,02,18,07,01,1001.56
2014,02,18,07,02,1001.52
2014,02,18,07,03,1001.49
2014,02,18,07,04,1001.46
2014,02,18,07,05,1001.42
2014,02,18,07,06,1001.46
2014,02,18,07,07,1001.42
2014,02,18,07,08,1001.42
2014,02,18,07,09,1001.42
2014,02,18,07,10,1001.39
2014,02,18,07,11,1001.42
2014,02,18,07,12,1001.39
2014,02,18,07,13,1001.39
2014,02,18,07,14,1001.39
2014,02,18,07,15,1001.39
2014,02,18,07,16,1001.25
2014,02,18,07,17,1001.22
2014,02,18,07,18,1001.19
2014,02,18,07,19,1001.15
2014,02,18,07,20,1001.19
2014,02,18,07,21,1001.19
2014,02,18,07,22,1001.19
2014,02,18,07,23,1001.19
2014,02,18,07,24,1001.22
2014,02,18,07,25,1001.25
2014,02,18,07,26,1001.29
2014,02,18,07,27,1001.32
2014,02,18,07,28,1001.32
2014,02,18,07,29,1001.25
2014,02,18,07,30,1001.29
2014,02,18,07,31,1001.25
2014,02,18,07,32,1001.36
2014,02,18,07,33,1001.29
2014,02,18,07,34,1001.29
2014,02,18,07,35,1001.25
2014,02,18,07,36,1001.22
2014,02,18,07,37,1001.22
2014,02,18,07,38,1001.25
2014,02,18,07,39,1001.22
2014,02,18,07,40,1001.22
2014,02,18,07,41,1001.22
2014,02,18,07,42,1001.15
2014,02,18,07,43,1001.12
2014,02,18,07,44,1001.12
2014,02,18,07,45,1001.08
2014,02,18,07,46,1001.12
2014,02,18,07,47,1001.08
2014,02,18,07,48,1001.05
2014,02,18,07,49,1001.05
2014,02,18,07,50,1001.02
2014,02,18,07,51,1000.95
2014,02,18,07,52,1000.92
2014,02,18,07,53,1000.85
2014,02,18,07,54,1000.85
2014,02,18,07,55,1000.85
2014,02,18,07,56,1000.88
2014,02,18,07,57,1000.95
2014,02,18,07,58,1000.92
2014,02,18,07,59,1000.92
2014,02,18,08,00,1000.81
2014,02,18,08,01,1000.81
2014,02,18,08,02,1000.81
2014,02,18,08,03,1000.81
2014,02,18,08,04,1000.85
2014,02,18,08,05,1000.85
2014,02,18,08,06,1000.78
2014,02,18,08,07,1000.75
2014,02,18,08,08,1000.61
2014,02,18,08,09,1000.54
2014,02,18,08,10,1000.51
2014,02,18,08,11,1000.48
2014,02,18,08,12,1000.48
2014,02,18,08,13,1000.41
2014,02,18,08,14,1000.37
2014,02,18,08,15,1000.31
2014,02,18,08,16,1000.20
2014,02,18,08,17,1000.10
2014,02,18,08,18,1000.10
2014,02,18,08,19,1000.07
2014,02,18,08,20,1000.03
2014,02,18,08,21,1000.03
2014,02,18,08,22,1000.00
2014,02,18,08,23,1000.00
2014,02,18,08,24,999.93
2014,02,18,08,25,999.90
2014,02,18,08,26,999.83
2014,02,18,08,27,999.87
2014,02,18,08,28,999.90
2014,02,18,08,29,999.90
2014,02,18,08,30,999.90
2014,02,18,08,31,999.97
2014,02,18,08,32,1000.00
2014,02,18,08,33,999.97
2014,02,18,08,34,999.93
2014,02,18,08,35,999.87
2014,02,18,08,36,999.83
2014,02,18,08,37,999.80
2014,02,18,08,38,999.87
2014,02,18,08,39,999.83
2014,02,18,08,40,999.90
2014,02,18,08,41,999.90
2014,02,18,08,42,999.93
2014,02,18,08,43,999.90
2014,02,18,08,44,999.93
2014,02,18,08,45,999.93
2014,02,18,08,46,999.87
2014,02,18,08,47,999.87
2014,02,18,08,48,999.80
2014,02,18,08,49,999.73
2014,02,18,08,50,999.66
2014,02,18,08,51,999.70
2014,02,18,08,52,999.63
2014,02,18,08,53,999.56
2014,02,18,08,54,999.53
2014,02,18,08,55,999.53
2014,02,18,08,56,999.49
2014,02,18,08,57,999.43
2014,02,18,08,58,999.39
2014,02,18,08,59,999.36
2014,02,18,09,00,999.32
2014,02,18,09,01,999.29
2014,02,18,09,02,999.29
2014,02,18,09,03,999.26
2014,02,18,09,04,999.19
2014,02,18,09,05,999.19
2014,02,18,09,06,999.22
2014,02,18,09,07,999.19
2014,02,18,09,08,999.15
2014,02,18,09,09,999.09
2014,02,18,09,10,999.05
2014,02,18,09,11,999.09
2014,02,18,09,12,999.12
2014,02,18,09,13,999.09
2014,02,18,09,14,999.05
2014,02,18,09,15,999.12
2014,02,18,09,16,999.09
2014,02,18,09,17,999.02
2014,02,18,09,18,999.02
2014,02,18,09,19,999.02
2014,02,18,09,20,999.02
2014,02,18,09,21,999.02
2014,02,18,09,22,999.02
2014,02,18,09,23,999.02
2014,02,18,09,24,998.99
2014,02,18,09,25,998.95
2014,02,18,09,26,998.88
2014,02,18,09,27,998.82
2014,02,18,09,28,998.78
2014,02,18,09,29,998.71
2014,02,18,09,30,998.67
2014,02,18,09,31,998.58
2014,02,18,09,32,998.51
2014,02,18,09,33,998.41
2014,02,18,09,34,998.34
2014,02,18,09,35,998.31
2014,02,18,09,36,998.31
2014,02,18,09,37,998.21
2014,02,18,09,38,998.10
2014,02,18,09,39,997.91
2014,02,18,09,40,997.77
2014,02,18,09,41,997.73
2014,02,18,09,42,997.70
2014,02,18,09,43,997.70
2014,02,18,09,44,997.73
2014,02,18,09,45,997.73
2014,02,18,09,46,997.73
2014,02,18,09,47,997.77
2014,02,18,09,48,997.80
2014,02,18,09,49,997.73
2014,02,18,09,50,997.63
2014,02,18,09,51,997.63
2014,02,18,09,52,997.66
2014,02,18,09,53,997.66
2014,02,18,09,54,997.63
2014,02,18,09,55,997.60
2014,02,18,09,56,997.63
2014,02,18,09,57,997.63
2014,02,18,09,58,997.70
2014,02,18,09,59,997.70
2014,02,18,10,00,997.80
2014,02,18,10,01,997.77
2014,02,18,10,02,997.70
2014,02,18,10,03,997.73
2014,02,18,10,04,997.63
2014,02,18,10,05,997.60
2014,02,18,10,06,997.60
2014,02,18,10,07,997.70
2014,02,18,10,08,997.77
2014,02,18,10,09,997.66
2014,02,18,10,10,997.56
2014,02,18,10,11,997.46
2014,02,18,10,12,997.33
2014,02,18,10,13,997.22
2014,02,18,10,14,997.16
2014,02,18,10,15,997.22
2014,02,18,10,16,997.33
2014,02,18,10,17,997.36
2014,02,18,10,18,997.33
2014,02,18,10,19,997.33
2014,02,18,10,20,997.29
2014,02,18,10,21,997.29
2014,02,18,10,22,997.26
2014,02,18,10,23,997.22
2014,02,18,10,24,997.12
2014,02,18,10,25,997.12
2014,02,18,10,26,997.19
2014,02,18,10,27,997.19
2014,02,18,10,28,997.26
2014,02,18,10,29,997.26
2014,02,18,10,30,997.22
2014,02,18,10,31,997.19
2014,02,18,10,32,997.09
2014,02,18,10,33,997.02
2014,02,18,10,34,996.85
2014,02,18,10,35,996.82
2014,02,18,10,36,996.82
2014,02,18,10,37,996.78
2014,02,18,10,38,996.72
2014,02,18,10,39,996.65
2014,02,18,10,40,996.72
2014,02,18,10,41,996.68
2014,02,18,10,42,996.65
2014,02,18,10,43,996.61
2014,02,18,10,44,996.51
2014,02,18,10,45,996.41
2014,02,18,10,46,996.41
2014,02,18,10,47,996.34
2014,02,18,10,48,996.24
2014,02,18,10,49,996.24
2014,02,18,10,50,996.31
2014,02,18,10,51,996.31
2014,02,18,10,52,996.31
2014,02,18,10,53,996.28
2014,02,18,10,54,996.21
2014,02,18,10,55,996.14
2014,02,18,10,56,996.04
2014,02,18,10,57,995.94
2014,02,18,10,58,995.87
2014,02,18,10,59,995.84
2014,02,18,11,00,995.77
2014,02,18,11,01,995.70
2014,02,18,11,02,995.67
2014,02,18,11,03,995.60
2014,02,18,11,04,995.50
2014,02,18,11,05,995.53
2014,02,18,11,06,995.43
2014,02,18,11,07,995.43
2014,02,18,11,08,995.43
2014,02,18,11,09,995.46
2014,02,18,11,10,995.46
2014,02,18,11,11,995.56
2014,02,18,11,12,995.56
2014,02,18,11,13,995.56
2014,02,18,11,14,995.56
2014,02,18,11,15,995.46
2014,02,18,11,16,995.43
2014,02,18,11,17,995.40
2014,02,18,11,18,995.36
2014,02,18,11,19,995.40
2014,02,18,11,20,995.43
2014,02,18,11,21,995.43
2014,02,18,11,22,995.40
2014,02,18,11,23,995.26
2014,02,18,11,24,995.12
2014,02,18,11,25,995.12
2014,02,18,11,26,995.09
2014,02,18,11,27,995.09
2014,02,18,11,28,995.09
2014,02,18,11,29,995.06
2014,02,18,11,30,994.99
2014,02,18,11,31,994.85
2014,02,18,11,32,994.85
2014,02,18,11,33,994.85
2014,02,18,11,34,994.72
2014,02,18,11,35,994.68
2014,02,18,11,36,994.68
2014,02,18,11,37,994.72
2014,02,18,11,38,994.75
2014,02,18,11,39,994.79
2014,02,18,11,40,994.89
2014,02,18,11,41,994.89
2014,02,18,11,42,994.89
2014,02,18,11,43,994.82
2014,02,18,11,44,994.75
2014,02,18,11,45,994.68
2014,02,18,11,46,994.55
2014,02,18,11,47,994.52
2014,02,18,11,48,994.45
2014,02,18,11,49,994.45
2014,02,18,11,50,994.48
2014,02,18,11,51,994.52
2014,02,18,11,52,994.62
2014,02,18,11,53,994.72
2014,02,18,11,54,994.72
2014,02,18,11,55,994.68
2014,02,18,11,56,994.68
2014,02,18,11,57,994.72
2014,02,18,11,58,994.72
2014,02,18,11,59,994.65
2014,02,18,12,00,994.62
2014,02,18,12,01,994.62
2014,02,18,12,02,994.62
2014,02,18,12,03,994.62
2014,02,18,12,04,994.65
2014,02,18,12,05,994.65
2014,02,18,12,06,994.58
2014,02,18,12,07,994.52
2014,02,18,12,08,994.48
2014,02,18,12,09,994.45
2014,02,18,12,10,994.41
2014,02,18,12,11,994.41
2014,02,18,12,12,994.38
2014,02,18,12,13,994.31
2014,02,18,12,14,994.31
2014,02,18,12,15,994.31
2014,02,18,12,16,994.31
2014,02,18,12,17,994.31
2014,02,18,12,18,994.31
2014,02,18,12,19,994.28
2014,02,18,12,20,994.31
2014,02,18,12,21,994.28
2014,02,18,12,22,994.28
2014,02,18,12,23,994.24
2014,02,18,12,24,994.07
2014,02,18,12,25,994.04
2014,02,18,12,26,993.91
2014,02,18,12,27,993.80
2014,02,18,12,28,993.70
2014,02,18,12,29,993.60
2014,02,18,12,30,993.53
2014,02,18,12,31,993.60
2014,02,18,12,32,993.77
2014,02,18,12,33,993.96
2014,02,18,12,34,994.21
2014,02,18,12,35,994.48
2014,02,18,12,36,994.75
2014,02,18,12,37,994.92
2014,02,18,12,38,994.99
2014,02,18,12,39,994.89
2014,02,18,12,40,994.79
2014,02,18,12,41,994.72
2014,02,18,12,42,994.65
2014,02,18,12,43,994.58
2014,02,18,12,44,994.55
2014,02,18,12,45,994.52
2014,02,18,12,46,994.48
2014,02,18,12,47,994.45
2014,02,18,12,48,994.41
2014,02,18,12,49,994.35
2014,02,18,12,50,994.35
2014,02,18,12,51,994.28
2014,02,18,12,52,994.24
2014,02,18,12,53,994.31
2014,02,18,12,54,994.31
2014,02,18,12,55,994.28
2014,02,18,12,56,994.18
2014,02,18,12,57,994.11
2014,02,18,12,58,994.04
2014,02,18,12,59,994.01
2014,02,18,13,00,994.01
2014,02,18,13,01,994.01
2014,02,18,13,02,993.97
2014,02,18,13,03,993.88
2014,02,18,13,04,993.70
2014,02,18,13,05,993.67
2014,02,18,13,06,993.74
2014,02,18,13,07,993.80
2014,02,18,13,08,993.80
2014,02,18,13,09,993.80
2014,02,18,13,10,993.84
2014,02,18,13,11,993.80
2014,02,18,13,12,993.84
2014,02,18,13,13,993.87
2014,02,18,13,14,993.97
2014,02,18,13,15,994.07
2014,02,18,13,16,994.01
2014,02,18,13,17,994.04
2014,02,18,13,18,994.07
2014,02,18,13,19,994.11
2014,02,18,13,20,994.18
2014,02,18,13,21,994.18
2014,02,18,13,22,994.11
2014,02,18,13,23,994.04
2014,02,18,13,24,994.04
2014,02,18,13,25,994.04
2014,02,18,13,26,993.97
2014,02,18,13,27,994.01
2014,02,18,13,28,993.97
2014,02,18,13,29,993.97
2014,02,18,13,30,993.94
2014,02,18,13,31,993.94
2014,02,18,13,32,993.94
2014,02,18,13,33,993.87
2014,02,18,13,34,993.84
2014,02,18,13,35,993.77
2014,02,18,13,36,993.77
2014,02,18,13,37,993.70
2014,02,18,13,38,993.70
2014,02,18,13,39,993.70
2014,02,18,13,40,993.74
2014,02,18,13,41,993.63
2014,02,18,13,42,993.67
2014,02,18,13,43,993.58
2014,02,18,13,44,993.57
2014,02,18,13,45,993.50
2014,02,18,13,46,993.47
2014,02,18,13,47,993.47
2014,02,18,13,48,993.40
2014,02,18,13,49,993.30
2014,02,18,13,50,993.26
2014,02,18,13,51,993.23
2014,02,18,13,52,993.19
2014,02,18,13,53,993.09
2014,02,18,13,54,993.06
2014,02,18,13,55,993.03
2014,02,18,13,56,993.06
2014,02,18,13,57,993.06
2014,02,18,13,58,993.09
2014,02,18,13,59,993.03
2014,02,18,14,00,992.99
2014,02,18,14,01,992.99
2014,02,18,14,02,992.96
2014,02,18,14,03,992.92
2014,02,18,14,04,992.92
2014,02,18,14,05,992.99
2014,02,18,14,06,992.92
2014,02,18,14,07,992.86
2014,02,18,14,08,992.82
2014,02,18,14,09,992.75
2014,02,18,14,10,992.79
2014,02,18,14,11,992.82
2014,02,18,14,12,992.72
2014,02,18,14,13,992.79
2014,02,18,14,14,992.82
2014,02,18,14,15,992.79
2014,02,18,14,16,992.75
2014,02,18,14,17,992.75
2014,02,18,14,18,992.82
2014,02,18,14,19,992.89
2014,02,18,14,20,992.96
2014,02,18,14,21,993.03
2014,02,18,14,22,993.06
2014,02,18,14,23,993.09
2014,02,18,14,24,993.13
2014,02,18,14,25,993.16
2014,02,18,14,26,993.13
2014,02,18,14,27,993.09
2014,02,18,14,28,993.09
2014,02,18,14,29,993.13
2014,02,18,14,30,993.09
2014,02,18,14,31,993.18
2014,02,18,14,32,993.16
2014,02,18,14,33,993.23
2014,02,18,14,34,993.19
2014,02,18,14,35,993.19
2014,02,18,14,36,993.16
2014,02,18,14,37,993.23
2014,02,18,14,38,993.30
2014,02,18,14,39,993.23
2014,02,18,14,40,993.19
2014,02,18,14,41,993.13
2014,02,18,14,42,993.16
2014,02,18,14,43,993.19
2014,02,18,14,44,993.23
2014,02,18,14,45,993.30
2014,02,18,14,46,993.40
2014,02,18,14,47,993.43
2014,02,18,14,48,993.36
2014,02,18,14,49,993.33
2014,02,18,14,50,993.36
2014,02,18,14,51,993.33
2014,02,18,14,52,993.30
2014,02,18,14,53,993.33
2014,02,18,14,54,993.30
2014,02,18,14,55,993.26
2014,02,18,14,56,993.23
2014,02,18,14,57,993.26
2014,02,18,14,58,993.30
2014,02,18,14,59,993.23
2014,02,18,15,00,993.33
2014,02,18,15,01,993.33
2014,02,18,15,02,993.40
2014,02,18,15,03,993.50
2014,02,18,15,04,993.57
2014,02,18,15,05,993.63
2014,02,18,15,06,993.67
2014,02,18,15,07,993.63
2014,02,18,15,08,993.67
2014,02,18,15,09,993.70
2014,02,18,15,10,993.77
2014,02,18,15,11,993.84
2014,02,18,15,12,993.91
2014,02,18,15,13,994.11
2014,02,18,15,14,994.11
2014,02,18,15,15,994.14
2014,02,18,15,16,994.03
2014,02,18,15,17,993.87
2014,02,18,15,18,993.91
2014,02,18,15,19,993.94
2014,02,18,15,20,993.94
2014,02,18,15,21,993.91
2014,02,18,15,22,993.97
2014,02,18,15,23,994.04
2014,02,18,15,24,994.04
2014,02,18,15,25,994.14
2014,02,18,15,26,994.18
2014,02,18,15,27,994.18
2014,02,18,15,28,994.18
2014,02,18,15,29,994.21
2014,02,18,15,30,994.24
2014,02,18,15,31,994.28
2014,02,18,15,32,994.31
2014,02,18,15,33,994.41
2014,02,18,15,34,994.41
2014,02,18,15,35,994.41
2014,02,18,15,36,994.48
2014,02,18,15,37,994.52
2014,02,18,15,38,994.52
2014,02,18,15,39,994.55
2014,02,18,15,40,994.62
2014,02,18,15,41,994.55
2014,02,18,15,42,994.52
2014,02,18,15,43,994.68
2014,02,18,15,44,994.79
2014,02,18,15,45,994.79
2014,02,18,15,46,994.56
2014,02,18,15,47,994.42
2014,02,18,15,48,994.68
2014,02,18,15,49,994.72
2014,02,18,15,50,994.65
2014,02,18,15,51,994.55
2014,02,18,15,52,994.48
2014,02,18,15,53,994.52
2014,02,18,15,54,994.58
2014,02,18,15,55,994.62
2014,02,18,15,56,994.68
2014,02,18,15,57,994.68
2014,02,18,15,58,994.75
2014,02,18,15,59,994.72
2014,02,18,16,00,994.65
2014,02,18,16,01,994.72
2014,02,18,16,02,994.72
2014,02,18,16,03,994.79
2014,02,18,16,04,994.72
2014,02,18,16,05,994.82
2014,02,18,16,06,994.89
2014,02,18,16,07,994.89
2014,02,18,16,08,994.96
2014,02,18,16,09,994.96
2014,02,18,16,10,994.96
2014,02,18,16,11,994.96
2014,02,18,16,12,994.96
2014,02,18,16,13,994.96
2014,02,18,16,14,995.02
2014,02,18,16,15,994.99